Miscellaneous Local Product
Issued by NWS North Platte, NE

Home | Current Version | Previous Version | Text Only | Print | Product List | Glossary On
Versions: 1 2 3 4 5 6 7 8 9 10 11 12 13 14 15 16 17 18 19 20 21 22 23 24 25 26 27 28 29 30 31 32 33 34 35 36 37 38 39 40 41 42 43 44 45 46 47 48 49 50
000
AXUS43 KLBF 222310
MISLBF


WESTERN AND NORTH CENTRAL NEBRASKA HOURLY WEATHER ROUNDUP
NATIONAL WEATHER SERVICE NORTH PLATTE NE
600 PM CDT TUE AUG 22 2017

NOTE: "FAIR" INDICATES FEW OR NO CLOUDS BELOW 12,000 FEET WITH NO
SIGNIFICANT WEATHER AND/OR OBSTRUCTIONS TO VISIBILITY.

NOTE: STATIONS NOT REPORTING VARIABLES SUCH AS SKY/WEATHER OR
PRESSURE ARE PROVIDED BY RAWS AND APRS NETWORKS AND ARE NOT UNDER
NATIONAL WEATHER SERVICE QUALITY CONTROL.

...OBSERVATIONS IN AND NEAR THE EASTERN PANHANDLE OF NEBRASKA...

CITY           SKY/WX    TMP DP  RH WIND       PRES   REMARKS
PINE RIDGE     SUNNY     84  48  28 S10       30.15F
GORDON         FAIR      82  43  24 S10       30.17F
CHADRON        SUNNY     84  46  26 S14G24    30.12F
ALLIANCE       SUNNY     79  47  32 S17G24    30.19F
SIDNEY         SUNNY     81  48  31 S18       30.23F
$$

...OBSERVATIONS IN NORTHERN NEBRASKA AND FAR SOUTHERN SOUTH DAKOTA...

CITY           SKY/WX    TMP DP  RH WIND       PRES   REMARKS
WINNER         FAIR      81  50  33 NE5       30.16F
VALENTINE      SUNNY     82  44  26 S5        30.17F
THEDFORD       SUNNY     80  47  31 SE5       30.20F
AINSWORTH      SUNNY     75  54  47 E6        30.19F
O`NEILL        SUNNY     75  51  43 W5        30.19F
ORD            SUNNY     76  47  35 S5        30.18F
BROKEN BOW     SUNNY     79  48  33 E5        30.20F
VALENTINE NWR    N/A     80  47  31 SW6         N/A
HALSEY           N/A     82  45  26 CALM        N/A
BUTTE            N/A     75  50  41 CALM        N/A
CHAMBERS         N/A     76  48  37 CALM        N/A
EWING            N/A     74  51  43 N3          N/A
$$

...OBSERVATIONS IN SOUTHWEST NEBRASKA AND FAR NORTHEAST COLORADO...

CITY           SKY/WX    TMP DP  RH WIND       PRES   REMARKS
HOLYOKE        FAIR      81  55  41 S13G18    30.22F
IMPERIAL       SUNNY     81  45  28 S12       30.21F
OGALLALA       SUNNY     80  48  32 S8G16     30.21F
NORTH PLATTE   SUNNY     79  55  43 SE9       30.20F
MCCOOK         SUNNY     80  50  34 SE6       30.20F
LEXINGTON      SUNNY     77  52  41 CALM      30.21F
STAPLETON        N/A     80  52  37 CALM        N/A
GOTHENBURG       N/A     78  47  33 E3          N/A
CALLAWAY         N/A     80  56  43 S3          N/A
$$

...OBSERVATIONS IN CENTRAL LINCOLN COUNTY AREA...

CITY           SKY/WX    TMP DP  RH WIND       PRES   REMARKS
N.P. AIRPORT   SUNNY     79  55  43 SE9       30.20F
N.P. DOWNTOWN    N/A     81  51  35 CALM        N/A
N.P. SOUTHEAST   N/A     81  52  36 S3          N/A
N.P. HILLCREST   N/A     78  54  42 SE7         N/A
$$

...SOME OBSERVATIONS FROM AROUND THE REGION...

CITY           SKY/WX    TMP DP  RH WIND       PRES   REMARKS
DENVER         CLOUDY    84  50  30 S10       30.22F
LIMON          SUNNY     74  56  53 S16G23    30.29F
ASPEN          CLOUDY    75  35  23 NW5       30.39S
LARAMIE        MOSUNNY   81  25  12 N15       30.30F
CASPER         SUNNY     85  34  16 CALM      30.18F
CHEYENNE       SUNNY     77  53  43 S16G24    30.27F
SCOTTSBLUFF    SUNNY     85  48  27 SE15      30.16F
GRAND ISLAND   SUNNY     76  50  40 N6        30.20F
OMAHA          MOSUNNY   76  50  40 NW10      30.14F
SIOUX FALLS    SUNNY     75  49  39 NW9       30.14F
PIERRE         SUNNY     79  47  32 E8        30.12F
RAPID CITY     SUNNY     84  49  29 SE14      30.11F
BISMARCK       SUNNY     77  43  29 MISG      30.13F
KANSAS CITY    MOSUNNY   77  56  48 N12       30.09F
HILL CITY      SUNNY     84  47  27 NE12      30.18F
WICHITA        MOSUNNY   84  57  39 NE20      30.08S
DODGE CITY     SUNNY     85  54  34 NE14G21   30.14F
OKLAHOMA CITY  PTSUNNY   89  69  51 CALM      30.00R HX  93
DALLAS         MOSUNNY   96  68  39 SE9       29.94F HX 101
AMARILLO       CLOUDY    76  68  76 NE7       30.19S
$$




USA.gov is the U.S. government's official web portal to all federal, state and local government web resources and services.